Weather in Malaya Buromka

Ukraine / Cherkassi District     49°38′55″N   32°36′06″E
temp.,
°C
wind,
m/s
gust,
m/s
humid.,
%
clouds,
%
prec.,
mm/h
press.,
hPa
HPBL,
m
22 october, fri
fri2200:00+12sw817715 0.0 1008565
03:00+11sw71572100 0.0 1008373
06:00+12sw51263100 0.0 1008303
09:00+13wsw5126379 0.0 1010605
12:00+17w7113999 0.0 10111384
15:00+18w7114510 0.0 10121899
18:00+15w344740 0.0 101287
21:00+11w225998 0.0 101412
23 october, sat
sat2300:00+12sw3656100 0.0 1014130
03:00+10sw410645 0.0 1014201
06:00+9wsw5127097 0.0 1014303
09:00+11wsw51258100 0.0 1014704
12:00+13w8114013 0.0 10151517
15:00+13wnw811385 0.0 10161986
18:00+9wnw484854 0.0 1017175
21:00+6nw385681 0.0 1020171
24 october, sun
sun2400:00+5w37665 0.0 1020136
03:00+4w4976100 0.0 1021197
06:00+4w497459 0.0 1021228
09:00+4w59745 0.0 1022363
12:00+9wnw675937 0.0 1023896
15:00+8nw7955100 0.3 10231472
18:00+5nw7116771 0.0 1025830
21:00+5nw6116975 0.0 10271207
25 october, mon
mon2500:00+2nnw511739 0.0 1028552
03:00+1nw511735 0.0 1030416
06:000nnw49795 0.0 1031282
09:00+1n47745 0.0 1033313
12:00+5n34500 0.0 1034834
15:00+7n33410 0.0 10331057
18:00+4n22523 0.0 103411
21:00+2ene11575 0.0 103410
26 october, tue
tue2600:00+1se22620 0.0 103517
03:00+1sse22645 0.0 103519
06:000sse33720 0.0 103426
09:00+2sse36665 0.0 1033173
12:00+7s56405 0.0 1033707
15:00+9s463351 0.0 1031876
18:00+5sse454480 0.0 103074
21:00+4s4849100 0.0 1029125